Regional Weather Roundup
Issued by NWS

Home | Current Version | Previous Version | Graphics & Text | Print | Product List | Glossary On
Versions: 1 2 3 4 5 6 7 8 9 10 11 12 13 14 15 16 17 18 19 20 21 22 23 24 25 26 27 28 29 30 31 32 33 34 35 36 37 38 39 40 41 42 43 44 45 46 47 48 49 50
000
ASUS43 KBIS 270301
RWRND

NORTH DAKOTA REGIONAL WEATHER ROUNDUP
NATIONAL WEATHER SERVICE BISMARCK ND
1000 PM CDT THU MAR 26 2015

NOTE: "FAIR" INDICATES FEW OR NO CLOUDS BELOW 12,000 FEET WITH NO
SIGNIFICANT WEATHER AND/OR OBSTRUCTIONS TO VISIBILITY.


NDZ001>003-009>011-017-270400-
NORTHWEST NORTH DAKOTA

CITY           SKY/WX    TMP DP  RH WIND       PRES   REMARKS
WILLISTON      CLOUDY    38  27  64 SE7       30.14S
MINOT          PTCLDY    29  19  66 SE9       30.21S
MINOT AFB      PTCLDY    29  24  81 SE10      30.20F WCI  19
$$

NDZ018>021-031>035-040>046-270400-
SOUTHWEST NORTH DAKOTA

CITY           SKY/WX    TMP DP  RH WIND       PRES   REMARKS
BISMARCK       PTCLDY    26  18  71 E5        30.25R
DICKINSON      CLOUDY    33  27  78 SE9       30.14F
GARRISON         N/A     27  20  75 SE5       30.21S
HETTINGER ARPT CLOUDY    32  27  81 SE7       30.18F
$$

NDZ004>008-012>016-024-026-027-054-270400-
NORTHEAST NORTH DAKOTA

CITY           SKY/WX    TMP DP  RH WIND       PRES   REMARKS
GRAND FORKS    FAIR      20  15  81 N5        30.31S WCI  13
GRND FRKS AFB  CLEAR     19  13  80 N5        30.30F WCI  12
DEVILS LAKE    CLEAR     25  18  74 SE5       30.26F WCI  19
$$

NDZ022-023-025-028>030-036>039-047>053-270400-
SOUTHEAST NORTH DAKOTA

CITY           SKY/WX    TMP DP  RH WIND       PRES   REMARKS
FARGO          CLEAR     22  11  62 NW9       30.30R WCI  12
JAMESTOWN      CLEAR     21  13  71 E5        30.27S WCI  15
$$




USA.gov is the U.S. government's official web portal to all federal, state and local government web resources and services.